Bloomington, IN

11:03 AM EDT on April 22, 2018 (GMT -0400)
Monroe County

Weather History for KBMG - May, 2011

Change the Weather History Date:

Friday, May 20, 2011

  Actual Average Record
Temperature  
Mean Temperature 66 °F 64 °F  
Max Temperature 80 °F 75 °F 88 °F (2012)
Min Temperature 52 °F 53 °F 37 °F (2002)
Degree Days  
Heating Degree Days 0 4  
Month to date heating degree days 142 108  
Since 1 July heating degree days 5243 5222  
Cooling Degree Days 1 3  
Month to date cooling degree days 36 29  
Year to date cooling degree days 51 48  
Growing Degree Days 15 (Base 50)    
Moisture  
Dew Point 56 °F    
Average Humidity 68    
Maximum Humidity 93    
Minimum Humidity 43    
Precipitation  
Precipitation 0.00 in 0.16 in 0.52 in (2017)
Month to date precipitation 4.42 3.47  
Year to date precipitation 26.57 18.12  
Sea Level Pressure  
Sea Level Pressure 30.04 in    
Wind  
Wind Speed 2 mph (SE)    
Max Wind Speed 8 mph    
Max Gust Speed 12 mph    
Visibility 8 miles    
Events      
T = Trace of Precipitation, MM = Missing Value Source: NWS Daily Summary

Daily Weather History Graph

Daily Weather History Graph

Search for Another Location

Airport or City:

Astronomy

May. 20, 2011 Rise Set
Actual Time 6:29 AM EDT 8:57 PM EDT
Civil Twilight 5:58 AM EDT 9:27 PM EDT
Nautical Twilight 5:21 AM EDT 10:05 PM EDT
Astronomical Twilight 4:39 AM EDT 10:47 PM EDT
Moon No Moon Rise 9:20 AM EDT (5/20)
Length of Visible Light 15h 28m
Length of Day
14h 27m
Waning Gibbous, 87% of the Moon is Illuminated
May 20
Waning Gibbous
May 24
Last Quarter
Jun 1
New
Jun 8
First Quarter
Jun 15
Full

Hourly Weather History & Observations

Time (EDT) Temp. Dew Point Humidity Pressure Visibility Wind Dir Wind Speed Gust Speed Precip Events Conditions
12:53 AM 57.9 °F 54.0 °F 87% 30.06 in 10.0 mi Calm Calm - N/A   Mostly Cloudy
1:53 AM 55.9 °F 54.0 °F 93% 30.06 in 7.0 mi Calm Calm - N/A   Clear
2:53 AM 55.0 °F 53.1 °F 93% 30.06 in 8.0 mi Calm Calm - N/A   Clear
3:53 AM 54.0 °F 52.0 °F 93% 30.06 in 4.0 mi Calm Calm - N/A   Clear
4:28 AM 53.6 °F 51.8 °F 94% 30.06 in 2.0 mi Calm Calm - N/A   Scattered Clouds
4:53 AM 53.1 °F 52.0 °F 96% 30.05 in 3.0 mi Calm Calm - N/A   Partly Cloudy
5:20 AM 51.8 °F 51.8 °F 100% 30.07 in 2.0 mi Calm Calm - N/A   Scattered Clouds
5:53 AM 53.1 °F 52.0 °F 96% 30.07 in 5.0 mi Calm Calm - N/A   Mostly Cloudy
6:53 AM 55.0 °F 53.1 °F 93% 30.08 in 3.0 mi Calm Calm - N/A   Overcast
7:53 AM 57.9 °F 55.9 °F 93% 30.08 in 4.0 mi Calm Calm - N/A   Overcast
8:53 AM 60.1 °F 57.9 °F 93% 30.09 in 5.0 mi Calm Calm - N/A   Overcast
9:53 AM 66.0 °F 57.0 °F 73% 30.09 in 10.0 mi Calm Calm - N/A   Overcast
10:53 AM 72.0 °F 55.0 °F 55% 30.07 in 10.0 mi SE 5.8 mph - N/A   Partly Cloudy
12:53 PM 73.9 °F 53.1 °F 48% 30.04 in 10.0 mi ESE 5.8 mph - N/A   Clear
1:53 PM 75.9 °F 55.0 °F 48% 30.03 in 10.0 mi South 4.6 mph - N/A   Clear
2:53 PM 77.0 °F 54.0 °F 45% 30.02 in 10.0 mi Calm Calm - N/A   Clear
3:53 PM 79.0 °F 55.9 °F 45% 30.01 in 10.0 mi SSE 6.9 mph - N/A   Clear
4:53 PM 77.0 °F 55.9 °F 48% 30.00 in 10.0 mi SE 6.9 mph - N/A   Partly Cloudy
5:53 PM 78.1 °F 55.0 °F 45% 29.99 in 10.0 mi Calm Calm - N/A   Clear
6:53 PM 77.0 °F 57.0 °F 50% 29.98 in 10.0 mi SSE 4.6 mph - N/A   Scattered Clouds
7:53 PM 73.9 °F 57.9 °F 57% 29.99 in 10.0 mi Calm Calm - N/A   Scattered Clouds
8:53 PM 70.0 °F 63.0 °F 78% 30.00 in 10.0 mi Calm Calm - N/A   Scattered Clouds
9:53 PM 69.1 °F 60.1 °F 73% 30.00 in 10.0 mi Calm Calm - N/A   Scattered Clouds
10:53 PM 68.0 °F 61.0 °F 78% 30.01 in 10.0 mi Calm Calm - N/A   Mostly Cloudy
11:53 PM 64.9 °F 61.0 °F 87% 29.99 in 10.0 mi Calm Calm - N/A   Clear